KB9ZI Weather Reports


time (UTC)temp
F
wind
direction
speed
knots
gust
knots
rain 1hr
in
rain 24hr
in
rain mn
in
humidity
%
barometer
mb
20260902210937 88 63 0.0 2.6 0.00 0.19 0.19 65 1011.0
20260902210835 88 152 0.0 2.6 0.00 0.19 0.19 64 1011.0
20260902210702 88 151 0.0 2.6 0.00 0.19 0.19 64 1011.0
20260902210535 88 152 0.0 3.5 0.00 0.19 0.19 64 1011.0
20260902210432 88 41 0.0 3.5 0.00 0.19 0.19 64 1011.0
20260902210203 88 37 0.0 3.5 0.00 0.19 0.19 64 1011.0
20260902210134 89 37 0.0 3.5 0.00 0.19 0.19 64 1011.1
20260902210008 88 65 0.0 3.5 0.00 0.19 0.19 66 1011.1
20260902205949 88 32 0.0 3.5 0.00 0.19 0.19 65 1011.1
20260902205918 88 65 0.0 3.5 0.00 0.19 0.19 66 1011.1
20260902205534 88 144 0.0 2.6 0.00 0.19 0.19 62 1011.1
20260902205434 89 142 0.0 2.6 0.00 0.19 0.19 65 1011.1
20260902205201 89 37 0.0 3.5 0.00 0.19 0.19 66 1011.1
20260902205133 89 39 0.0 3.5 0.00 0.19 0.19 66 1011.1
20260902205050 88 37 0.0 3.5 0.00 0.19 0.19 66 1011.0
20260902204959 88 38 0.0 3.5 0.00 0.19 0.19 67 1011.0
20260902204918 88 38 0.0 3.5 0.00 0.19 0.19 65 1011.0
20260902204523 88 38 0.0 3.5 0.00 0.19 0.19 64 1011.0
20260902204323 88 41 0.0 3.5 0.00 0.19 0.19 65 1011.0
20260902204202 88 350 0.0 3.5 0.00 0.19 0.19 65 1011.0
20260902204121 88 42 0.0 3.5 0.00 0.19 0.19 65 1011.0
20260902204006 88 68 0.0 3.5 0.00 0.19 0.19 64 1011.1
20260902203950 88 44 0.0 3.5 0.00 0.19 0.19 64 1011.0
20260902203918 88 45 0.0 3.5 0.00 0.19 0.19 64 1011.1
20260902203618 89 73 0.0 3.5 0.00 0.19 0.19 64 1011.0
20260902203419 89 31 0.0 3.5 0.00 0.19 0.19 70 1011.0
20260902203203 88 31 0.0 3.5 0.00 0.19 0.19 67 1011.0
20260902203119 88 27 0.0 3.5 0.00 0.19 0.19 68 1011.0
20260902202915 88 41 0.0 3.5 0.00 0.19 0.19 68 1011.0
20260902202702 87 52 0.0 4.3 0.00 0.19 0.19 69 1011.1
20260902202513 88 52 0.0 5.2 0.00 0.19 0.19 67 1011.0
20260902202313 88 55 0.0 5.2 0.00 0.19 0.19 65 1011.1
20260902202211 88 76 0.0 5.2 0.00 0.19 0.19 68 1011.1
20260902202204 88 58 0.0 5.2 0.00 0.19 0.19 66 1011.1
20260902202016 88 45 0.0 5.2 0.00 0.19 0.19 66 1011.1
20260902201711 88 38 0.0 5.2 0.00 0.19 0.19 68 1011.1
20260902201646 88 38 0.0 5.2 0.00 0.19 0.19 68 1011.1
20260902201511 87 48 0.0 2.6 0.00 0.19 0.19 69 1011.1
20260902201312 87 49 0.0 2.6 0.00 0.19 0.19 65 1011.1
20260902201150 87 49 0.0 2.6 0.00 0.19 0.19 67 1011.1
20260902201110 87 49 0.0 2.6 0.00 0.19 0.19 65 1011.4
20260902200909 87 56 0.0 4.3 0.00 0.19 0.19 67 1011.4
20260902200806 87 38 0.0 4.3 0.00 0.19 0.19 68 1011.2
20260902200648 87 37 0.0 4.3 0.00 0.19 0.19 72 1011.2
20260902200609 87 37 0.0 4.3 0.00 0.19 0.19 66 1011.4
20260902200310 87 37 0.0 4.3 0.00 0.19 0.19 67 1011.4
20260902200148 87 38 0.0 4.3 0.00 0.19 0.19 65 1011.4
20260902200108 88 59 0.0 4.3 0.00 0.19 0.19 65 1011.4
20260902195909 88 34 0.0 4.3 0.00 0.19 0.19 69 1011.5
20260902195704 87 59 0.0 4.3 0.00 0.19 0.19 68 1011.6
20260902195648 87 61 0.0 4.3 0.00 0.19 0.19 68 1011.6
20260902195602 87 28 0.0 3.5 0.00 0.19 0.19 71 1011.6
20260902195306 87 49 0.0 3.5 0.00 0.19 0.19 71 1011.6
20260902195202 87 49 0.0 3.5 0.00 0.19 0.19 71 1011.7
20260902195148 87 49 0.0 3.5 0.00 0.19 0.19 72 1011.6
20260902194952 87 51 0.0 3.5 0.00 0.19 0.19 69 1011.8
20260902194939 86 51 0.0 3.5 0.00 0.19 0.19 67 1011.7
20260902194903 87 49 0.0 3.5 0.00 0.19 0.19 69 1011.7
20260902194504 87 52 0.0 3.5 0.00 0.19 0.19 66 1011.8
20260902194304 87 250 0.0 2.6 0.00 0.19 0.19 71 1011.8
20260902194203 87 250 0.0 2.6 0.00 0.19 0.19 71 1011.7
20260902194146 87 251 0.0 2.6 0.00 0.19 0.19 66 1011.7
20260902193905 86 189 0.0 2.6 0.00 0.19 0.19 68 1011.8
20260902193801 86 192 0.0 3.5 0.00 0.19 0.19 67 1011.8
20260902193645 86 192 0.0 3.5 0.00 0.19 0.19 67 1011.9
20260902193502 86 192 0.0 3.5 0.00 0.19 0.19 68 1012.0
20260902193304 86 192 0.0 3.5 0.00 0.19 0.19 66 1011.9
20260902193147 86 41 0.0 3.5 0.00 0.19 0.19 69 1012.0
20260902193102 86 39 0.0 3.5 0.00 0.19 0.19 68 1011.9
20260902192902 86 41 0.0 3.5 0.00 0.19 0.19 67 1011.9
20260902192800 86 41 0.0 3.5 0.00 0.19 0.19 65 1011.9
20260902192645 86 58 0.0 3.5 0.00 0.19 0.19 66 1011.9
20260902192502 86 59 0.0 3.5 0.00 0.19 0.19 69 1011.9
20260902192306 86 59 0.0 2.6 0.00 0.19 0.19 70 1011.9
20260902192145 86 138 0.0 2.6 0.00 0.19 0.19 66 1012.0
20260902192101 86 39 0.0 2.6 0.00 0.19 0.19 66 1012.0
20260902191958 86 47 0.0 2.6 0.00 0.19 0.19 70 1011.9
20260902191657 85 180 0.0 3.5 0.00 0.19 0.19 70 1011.9
20260902191645 85 179 0.0 3.5 0.00 0.19 0.19 70 1011.9
20260902191455 85 180 0.0 3.5 0.00 0.19 0.19 70 1011.9
20260902191359 84 179 0.0 3.5 0.00 0.19 0.19 71 1011.8
20260902191145 84 182 0.0 3.5 0.00 0.19 0.19 70 1011.9
20260902191054 84 180 0.0 3.5 0.00 0.19 0.19 71 1011.9
20260902190854 84 179 0.0 3.5 0.00 0.19 0.19 70 1011.9
20260902190654 84 179 0.0 3.5 0.00 0.19 0.19 68 1011.9
20260902190645 84 178 0.0 3.5 0.00 0.19 0.19 68 1011.9
20260902190555 85 179 0.0 3.5 0.00 0.19 0.19 68 1012.0
20260902190252 85 117 0.0 4.3 0.00 0.19 0.19 69 1011.9
20260902190146 85 117 0.0 5.2 0.00 0.19 0.19 68 1011.9
20260902190052 85 169 0.0 5.2 0.00 0.19 0.19 66 1011.9
20260902185952 85 38 0.0 5.2 0.00 0.19 0.19 70 1011.9
20260902185654 85 38 0.0 5.2 0.00 0.19 0.19 70 1011.9
20260902185645 85 39 0.0 5.2 0.00 0.19 0.19 70 1011.9
20260902185451 85 37 0.0 5.2 0.00 0.19 0.19 71 1012.0
20260902185248 85 10 0.0 4.3 0.00 0.19 0.19 74 1011.8
20260902185152 85 38 0.0 4.3 0.00 0.19 0.19 71 1011.9
20260902185145 85 4 0.0 4.3 0.00 0.19 0.19 68 1011.9
20260902184847 85 58 0.0 4.3 0.00 0.19 0.19 71 1012.0
20260902184645 85 58 0.0 4.3 0.00 0.19 0.19 70 1012.1
20260902184550 84 148 0.0 3.5 0.00 0.19 0.19 71 1012.1
20260902184251 84 148 0.0 3.5 0.00 0.19 0.19 71 1012.2
20260902184148 84 148 0.0 3.5 0.00 0.19 0.19 71 1012.2
20260902184048 84 148 0.0 3.5 0.00 0.19 0.19 69 1012.1
20260902183849 85 148 0.0 3.5 0.00 0.19 0.19 70 1012.1
20260902183649 84 128 0.0 2.6 0.00 0.19 0.19 69 1012.1
20260902183447 85 125 0.0 2.6 0.00 0.19 0.19 72 1012.2
20260902183248 85 90 0.0 2.6 0.00 0.19 0.19 71 1012.1
20260902183148 84 69 0.0 2.6 0.00 0.19 0.19 69 1012.1
20260902183053 84 59 0.0 3.5 0.00 0.19 0.19 70 1012.2
20260902183047 85 78 0.0 2.6 0.00 0.19 0.19 70 1012.1
20260902182648 84 41 0.0 3.5 0.00 0.19 0.19 71 1012.1
20260902182450 84 159 0.0 3.5 0.00 0.19 0.19 70 1012.1
20260902182443 85 151 0.0 3.5 0.00 0.19 0.19 70 1012.2
20260902182413 85 158 0.0 3.5 0.00 0.19 0.19 67 1012.2
20260902182046 85 41 0.0 3.5 0.00 0.19 0.19 67 1012.2
20260902181847 85 35 0.0 2.6 0.00 0.19 0.19 71 1012.1
20260902181659 84 38 0.0 4.3 0.00 0.19 0.19 71 1012.2
20260902181648 85 38 0.0 2.6 0.00 0.19 0.19 74 1012.2
20260902181249 84 37 0.0 4.3 0.00 0.19 0.19 71 1012.2
20260902181148 84 38 0.0 4.3 0.00 0.19 0.19 69 1012.2
20260902181046 84 38 0.0 4.3 0.00 0.19 0.19 69 1012.1
20260902180846 84 52 0.0 4.3 0.00 0.19 0.19 70 1012.2
20260902180648 84 51 0.0 4.3 0.00 0.19 0.19 73 1012.2
20260902180447 83 39 0.0 5.2 0.00 0.19 0.19 70 1012.3
20260902180249 83 39 0.0 5.2 0.00 0.19 0.19 73 1012.4
20260902180148 83 42 0.0 5.2 0.00 0.19 0.19 71 1012.4
20260902180049 83 87 0.0 5.2 0.00 0.19 0.19 72 1012.4
20260902175947 83 34 0.0 5.2 0.00 0.19 0.19 73 1012.5
20260902175752 83 56 0.0 5.2 0.00 0.19 0.19 72 1012.5
20260902175649 83 56 0.0 5.2 0.00 0.19 0.19 72 1012.5
20260902175447 83 11 0.0 3.5 0.00 0.19 0.19 71 1012.4
20260902175248 84 147 0.0 3.5 0.00 0.19 0.19 75 1012.5
20260902175155 84 145 0.0 3.5 0.00 0.19 0.19 72 1012.5
20260902175048 83 147 0.0 3.5 0.00 0.19 0.19 74 1012.6
20260902174846 83 34 0.0 5.2 0.00 0.19 0.19 72 1012.5
20260902174651 83 34 0.0 5.2 0.00 0.19 0.19 71 1012.5
20260902174543 83 27 0.0 5.2 0.00 0.19 0.19 74 1012.4
20260902174347 83 37 0.0 5.2 0.00 0.19 0.19 73 1012.5
20260902174148 83 37 0.0 5.2 0.00 0.19 0.19 72 1012.4
20260902174048 83 48 0.0 5.2 0.00 0.19 0.19 74 1012.5
20260902173847 82 158 0.0 2.6 0.00 0.19 0.19 74 1012.6
20260902173650 82 158 0.0 4.3 0.00 0.19 0.19 70 1012.7
20260902173510 82 37 0.0 4.3 0.00 0.19 0.19 77 1012.8
20260902173501 83 42 0.0 4.3 0.00 0.19 0.19 72 1012.8
20260902173423 83 37 0.0 4.3 0.00 0.19 0.19 77 1012.8
20260902173140 82 37 0.0 4.3 0.00 0.19 0.19 73 1012.8
20260902172942 82 37 0.0 4.3 0.00 0.19 0.19 74 1012.8
20260902172640 82 51 0.0 4.3 0.00 0.19 0.19 72 1012.9
20260902172453 82 38 0.0 4.3 0.00 0.19 0.19 74 1013.0
20260902172444 82 51 0.0 4.3 0.00 0.19 0.19 73 1012.9
20260902172412 82 51 0.0 4.3 0.00 0.19 0.19 73 1013.0
20260902172041 82 62 0.0 4.3 0.00 0.19 0.19 75 1013.1
20260902171939 82 56 0.0 0.0 0.00 0.19 0.19 75 1013.0
20260902171648 82 62 0.0 0.0 0.00 0.19 0.19 75 1013.0
20260902171636 82 63 0.0 0.0 0.00 0.19 0.19 75 1013.1
20260902171539 82 199 0.0 0.0 0.00 0.19 0.19 79 1013.1
20260902171448 81 199 0.0 0.0 0.00 0.19 0.19 75 1013.2
20260902171411 81 199 0.0 0.0 0.00 0.19 0.19 77 1013.2
20260902171035 81 199 0.0 0.0 0.00 0.19 0.19 76 1013.2
20260902170834 80 200 0.0 0.0 0.00 0.19 0.19 77 1013.3
20260902170654 80 199 0.0 0.0 0.00 0.19 0.19 76 1013.3
20260902170636 80 199 0.0 0.0 0.00 0.19 0.19 76 1013.4
20260902170557 80 200 0.0 0.0 0.00 0.19 0.19 76 1013.3
20260902170509 79 200 0.0 0.0 0.00 0.19 0.19 77 1013.4
20260902170420 79 200 0.0 0.0 0.00 0.19 0.19 77 1013.4
20260902170107 79 200 0.0 0.9 0.00 0.19 0.19 78 1013.6
20260902165809 79 200 0.0 0.9 0.00 0.19 0.19 76 1013.6
20260902165647 79 200 0.0 0.9 0.00 0.19 0.19 76 1013.5
20260902165609 79 202 0.0 0.9 0.00 0.19 0.19 79 1013.5
20260902165449 79 200 0.0 0.9 0.00 0.19 0.19 76 1013.5
20260902165437 79 200 0.0 0.9 0.00 0.19 0.19 79 1013.5
20260902165403 79 200 0.0 0.9 0.00 0.19 0.19 76 1013.5
20260902165112 79 195 0.0 0.0 0.00 0.19 0.19 78 1013.4
20260902164803 78 193 0.0 0.0 0.00 0.19 0.19 77 1013.4
20260902164700 78 192 0.0 0.0 0.00 0.19 0.19 77 1013.3
20260902164644 78 193 0.0 0.0 0.00 0.19 0.19 78 1013.3
20260902164442 79 42 0.0 0.0 0.00 0.19 0.19 77 1013.3
20260902164429 79 197 0.0 0.0 0.00 0.19 0.19 77 1013.5
20260902164357 79 42 0.0 0.0 0.00 0.19 0.19 77 1013.3
20260902163959 80 41 0.0 0.0 0.00 0.19 0.19 76 1013.2
20260902163759 80 21 0.0 0.0 0.00 0.19 0.19 76 1013.2
20260902163647 80 17 0.0 0.0 0.00 0.19 0.19 78 1013.2
20260902163557 80 16 0.0 0.0 0.00 0.19 0.19 78 1013.2
20260902163444 79 41 0.0 0.0 0.00 0.19 0.19 79 1013.1
20260902163430 80 16 0.0 0.0 0.00 0.19 0.19 80 1013.2
20260902163359 79 42 0.0 0.0 0.00 0.19 0.19 79 1013.1
20260902162957 79 38 0.0 0.0 0.00 0.19 0.19 80 1013.1
20260902162857 78 45 0.0 0.0 0.00 0.19 0.19 79 1013.1
20260902162657 78 54 0.0 0.0 0.00 0.19 0.19 79 1013.1
20260902162645 78 47 0.0 0.0 0.00 0.19 0.19 79 1013.1
20260902162357 78 21 0.0 0.0 0.00 0.19 0.19 78 1013.1
20260902162155 78 42 0.0 0.0 0.00 0.19 0.19 80 1013.1
20260902162136 79 42 0.0 0.0 0.00 0.19 0.19 80 1013.1
20260902161954 78 38 0.0 0.0 0.00 0.19 0.19 79 1013.1
20260902161755 78 37 0.0 0.0 0.00 0.19 0.19 79 1013.1
20260902161636 78 38 0.0 0.0 0.00 0.19 0.19 78 1013.1
20260902161551 78 39 0.0 0.0 0.00 0.19 0.19 79 1013.1
20260902161449 78 38 0.0 0.0 0.00 0.19 0.19 80 1013.0
20260902161259 78 37 0.0 0.0 0.00 0.19 0.19 79 1013.0
20260902161133 78 34 0.0 0.0 0.00 0.19 0.19 79 1013.1
20260902160950 78 39 0.0 0.0 0.00 0.19 0.19 80 1013.1
20260902160749 78 38 0.0 0.0 0.00 0.19 0.19 80 1013.1
20260902160634 78 71 0.0 0.0 0.00 0.19 0.19 79 1013.1
20260902160549 78 80 0.0 0.0 0.00 0.19 0.19 80 1013.1
20260902160348 78 1 0.0 1.7 0.00 0.19 0.19 78 1013.0
20260902160148 78 200 0.0 3.5 0.00 0.19 0.19 77 1012.9
20260902160132 78 199 0.0 3.5 0.00 0.19 0.19 77 1013.0
20260902160049 78 199 0.0 3.5 0.00 0.19 0.19 77 1013.0
20260902155747 79 168 0.0 4.3 0.00 0.19 0.19 75 1013.0
20260902155631 79 113 0.0 4.3 0.00 0.19 0.19 76 1013.0
20260902155548 79 114 0.0 4.3 0.00 0.19 0.19 77 1013.0
20260902155346 79 149 0.0 4.3 0.00 0.19 0.19 76 1013.0
20260902155242 79 42 0.0 4.3 0.00 0.19 0.19 76 1013.0
20260902155131 79 42 0.0 4.3 0.00 0.19 0.19 78 1012.9
20260902154945 79 59 0.0 4.3 0.00 0.19 0.19 79 1012.9
20260902154844 78 16 0.0 0.0 0.00 0.19 0.19 77 1012.8
20260902154633 78 30 0.0 0.0 0.00 0.19 0.19 78 1012.7
20260902154544 78 28 0.0 0.0 0.00 0.19 0.19 80 1012.7
20260902154346 78 18 0.0 0.0 0.00 0.19 0.19 79 1012.6
20260902154144 78 1 0.0 0.0 0.00 0.19 0.19 79 1012.7
20260902154132 78 0 0.0 0.0 0.00 0.19 0.19 79 1012.7
20260902153956 77 56 0.0 0.0 0.00 0.19 0.19 79 1012.7
20260902153945 78 38 0.0 0.0 0.00 0.19 0.19 80 1012.7
20260902153917 77 63 0.0 0.0 0.00 0.19 0.19 78 1012.7
20260902153546 78 44 0.0 0.0 0.00 0.19 0.19 78 1012.7
20260902153444 78 62 0.0 0.0 0.00 0.19 0.19 79 1012.7
20260902153130 78 39 0.0 0.0 0.00 0.19 0.19 80 1012.7
20260902152945 78 38 0.0 0.0 0.00 0.19 0.19 79 1012.7
20260902152744 77 78 0.0 0.0 0.00 0.19 0.19 78 1012.8
20260902152629 77 69 0.0 0.0 0.00 0.19 0.19 78 1012.8
20260902152545 77 141 0.0 0.0 0.00 0.19 0.19 80 1012.8
20260902152442 78 51 0.0 0.0 0.00 0.19 0.19 82 1012.8
20260902152147 77 51 0.0 0.0 0.00 0.19 0.19 81 1012.7
20260902152129 77 52 0.0 0.0 0.00 0.19 0.19 82 1012.7
20260902152047 77 28 0.0 0.0 0.00 0.19 0.19 82 1012.8
20260902151747 76 24 0.0 0.0 0.00 0.19 0.19 82 1012.6
20260902151628 76 42 0.0 0.0 0.00 0.19 0.19 82 1012.6
20260902151533 76 51 0.0 0.0 0.00 0.19 0.19 83 1012.6
20260902151336 76 32 0.0 0.0 0.00 0.19 0.19 84 1012.6
20260902151236 76 35 0.0 0.0 0.00 0.19 0.19 81 1012.5
20260902151128 76 35 0.0 0.0 0.00 0.19 0.19 81 1012.5
20260902150934 76 48 0.0 0.0 0.00 0.19 0.19 81 1012.6
20260902150833 76 23 0.0 0.0 0.00 0.19 0.19 82 1012.5
20260902150632 76 39 0.0 0.0 0.00 0.19 0.19 83 1012.6
20260902150533 76 37 0.0 0.0 0.00 0.19 0.19 83 1012.6
20260902150330 76 48 0.0 0.0 0.00 0.19 0.19 83 1012.6
20260902150126 75 61 0.0 0.0 0.00 0.19 0.19 83 1012.6
20260902145929 75 37 0.0 0.0 0.00 0.19 0.19 82 1012.6
20260902145825 75 34 0.0 0.0 0.00 0.19 0.19 83 1012.7
20260902145628 75 35 0.0 0.0 0.00 0.19 0.19 83 1012.7
20260902145528 75 49 0.0 0.0 0.00 0.19 0.19 83 1012.7
20260902145507 75 25 0.0 0.0 0.00 0.19 0.19 82 1012.6
20260902145420 75 151 0.0 0.0 0.00 0.19 0.19 82 1012.7
20260902145339 75 151 0.0 0.0 0.00 0.19 0.19 82 1012.7
20260902144924 74 148 0.0 0.0 0.00 0.19 0.19 82 1012.8
20260902144727 74 149 0.0 0.0 0.00 0.19 0.19 82 1012.7
20260902144623 74 149 0.0 0.0 0.00 0.19 0.19 82 1012.8
20260902144523 74 151 0.0 0.0 0.00 0.19 0.19 83 1012.6
20260902144503 74 47 0.0 0.0 0.00 0.19 0.19 84 1012.7
20260902144414 74 56 0.0 0.0 0.00 0.19 0.19 85 1012.5
20260902144335 74 56 0.0 0.0 0.00 0.19 0.19 85 1012.5
20260902143907 74 54 0.0 0.0 0.00 0.19 0.19 85 1012.6
20260902143706 74 44 0.0 0.0 0.00 0.19 0.19 85 1012.6
20260902143623 74 55 0.0 0.0 0.00 0.19 0.19 85 1012.7
20260902143616 74 44 0.0 0.0 0.00 0.19 0.19 85 1012.6
20260902143357 73 52 0.0 0.0 0.00 0.19 0.19 86 1012.7
20260902143344 74 56 0.0 0.0 0.00 0.19 0.19 85 1012.7
20260902143105 73 52 0.0 0.0 0.00 0.19 0.19 86 1012.7
20260902142858 73 38 0.0 0.0 0.00 0.19 0.19 86 1012.7
20260902142756 73 38 0.0 0.0 0.00 0.19 0.19 86 1012.8
20260902142606 73 35 0.0 0.0 0.00 0.19 0.19 87 1012.8
20260902142454 73 47 0.0 0.0 0.00 0.19 0.19 87 1012.8
20260902142253 73 25 0.0 0.0 0.00 0.19 0.19 87 1012.8
20260902142145 73 24 0.0 0.0 0.00 0.19 0.19 87 1012.8
20260902142104 73 25 0.0 0.0 0.00 0.19 0.19 87 1012.8
20260902141847 73 25 0.0 0.0 0.00 0.19 0.19 88 1012.9
20260902141648 73 34 0.0 0.0 0.00 0.19 0.19 88 1012.9
20260902141604 72 32 0.0 0.0 0.00 0.19 0.19 89 1012.9
20260902141448 72 31 0.0 0.0 0.00 0.19 0.19 89 1013.0
20260902141348 72 32 0.0 0.0 0.00 0.19 0.19 90 1013.0
20260902141104 72 18 0.0 0.0 0.00 0.19 0.19 90 1013.0
20260902141047 72 20 0.0 0.0 0.00 0.19 0.19 90 1013.0
20260902140845 72 17 0.0 0.0 0.00 0.19 0.19 90 1013.0
20260902140741 71 6 0.0 0.0 0.00 0.19 0.19 91 1013.0
20260902140605 71 24 0.0 0.0 0.00 0.19 0.19 91 1012.9
20260902140443 71 34 0.0 0.0 0.00 0.19 0.19 92 1013.0
20260902140233 71 11 0.0 0.0 0.00 0.19 0.19 92 1013.0
20260902140108 71 10 0.0 0.0 0.00 0.19 0.19 92 1013.0
20260902140033 71 11 0.0 0.0 0.00 0.19 0.19 92 1013.0
20260902135930 71 11 0.0 0.0 0.00 0.19 0.19 92 1013.0
20260902135632 71 10 0.0 0.0 0.00 0.19 0.19 92 1013.0
20260902135601 71 10 0.0 0.0 0.00 0.19 0.19 92 1013.0
20260902135431 70 4 0.0 0.0 0.00 0.19 0.19 93 1012.9
20260902135328 70 35 0.0 0.0 0.00 0.19 0.19 93 1012.9
20260902135101 70 45 0.0 0.0 0.00 0.19 0.19 93 1012.9
20260902135030 70 0 0.0 0.0 0.00 0.19 0.19 93 1013.0
20260902134928 70 0 0.0 0.0 0.00 0.19 0.19 94 1012.9
20260902134631 70 37 0.0 0.0 0.00 0.19 0.19 95 1012.8
20260902134600 70 38 0.0 0.0 0.00 0.19 0.19 95 1012.8
20260902134433 70 34 0.0 0.0 0.00 0.19 0.19 95 1012.8
20260902134236 70 1 0.0 0.0 0.00 0.19 0.19 96 1012.8
20260902134100 70 23 0.0 0.0 0.00 0.19 0.19 96 1012.8
20260902134015 70 48 0.0 0.0 0.00 0.19 0.19 97 1012.8
20260902133944 69 47 0.0 0.0 0.00 0.19 0.19 96 1012.9
20260902133851 69 38 0.0 0.0 0.00 0.19 0.19 97 1012.9
20260902133813 69 38 0.0 0.0 0.00 0.19 0.19 97 1012.9
20260902133502 69 30 0.0 0.0 0.00 0.19 0.19 97 1012.9
20260902133202 69 20 0.0 0.0 0.00 0.19 0.19 96 1012.9
20260902133101 69 20 0.0 0.0 0.00 0.19 0.19 96 1012.9
20260902133002 69 20 0.0 0.0 0.00 0.19 0.19 96 1012.9
20260902132806 69 18 0.0 0.0 0.00 0.19 0.19 97 1012.9
20260902132608 68 20 0.0 0.0 0.00 0.19 0.19 97 1012.9
20260902132559 68 18 0.0 0.0 0.00 0.19 0.19 97 1012.9
20260902132441 68 17 0.0 0.0 0.00 0.19 0.19 97 1012.9
20260902132147 68 18 0.0 0.0 0.00 0.19 0.19 97 1012.8
20260902132102 68 20 0.0 0.0 0.00 0.19 0.19 97 1012.8
20260902132041 68 20 0.0 0.0 0.00 0.19 0.19 97 1012.8
20260902131747 68 18 0.0 0.0 0.00 0.19 0.19 97 1012.8
20260902131603 68 18 0.0 0.0 0.00 0.19 0.19 97 1012.7
20260902131531 68 18 0.0 0.0 0.00 0.19 0.19 97 1012.8
20260902131429 68 18 0.0 0.0 0.00 0.19 0.19 97 1012.8
20260902131131 67 17 0.0 0.0 0.00 0.19 0.19 97 1012.8
20260902131100 67 20 0.0 0.0 0.00 0.19 0.19 97 1012.8
20260902131036 67 18 0.0 0.0 0.00 0.19 0.19 97 1012.9
20260902130734 67 17 0.0 0.0 0.00 0.19 0.19 97 1013.0
20260902130601 67 17 0.0 0.0 0.00 0.19 0.19 97 1012.9
20260902130503 67 18 0.0 0.0 0.00 0.19 0.19 97 1013.0
20260902130303 66 18 0.0 0.0 0.00 0.19 0.19 97 1012.9
20260902130002 66 18 0.0 0.0 0.00 0.19 0.19 97 1012.9
20260902125900 66 17 0.0 0.0 0.00 0.19 0.19 97 1012.9
20260902125855 66 17 0.0 0.0 0.00 0.19 0.19 97 1012.9
20260902125829 66 17 0.0 0.0 0.00 0.19 0.19 97 1013.0
20260902125305 66 17 0.0 0.0 0.00 0.19 0.19 97 1012.8
20260902125101 66 17 0.0 0.0 0.00 0.19 0.19 97 1012.7
20260902124904 65 18 0.0 0.9 0.00 0.19 0.19 97 1012.8
20260902124647 65 17 0.0 2.6 0.00 0.19 0.19 97 1012.9
20260902124602 65 17 0.0 2.6 0.00 0.19 0.19 97 1012.9
20260902124546 65 17 0.0 2.6 0.00 0.19 0.19 97 1012.9
20260902124245 65 17 0.0 2.6 0.00 0.19 0.19 97 1012.8
20260902124141 65 17 0.0 2.6 0.00 0.19 0.19 97 1012.7
20260902124103 65 17 0.0 2.6 0.00 0.19 0.19 97 1012.7
20260902123845 65 18 0.0 2.6 0.00 0.19 0.19 97 1012.8
20260902123644 65 17 0.0 1.7 0.00 0.19 0.19 97 1012.7
20260902123603 65 17 0.0 1.7 0.00 0.19 0.19 97 1012.6
20260902123448 65 14 0.0 0.0 0.00 0.19 0.19 97 1012.6
20260902123230 65 18 0.0 0.0 0.00 0.19 0.19 97 1012.6
20260902123105 65 34 0.0 0.0 0.00 0.19 0.19 97 1012.6
20260902123030 65 32 0.0 0.0 0.00 0.19 0.19 97 1012.6
20260902122830 65 32 0.0 0.9 0.00 0.19 0.19 97 1012.6
20260902122732 65 6 0.0 0.9 0.00 0.19 0.19 97 1012.5
20260902122604 65 6 0.0 0.9 0.00 0.19 0.19 97 1012.5
20260902122434 65 6 0.0 1.7 0.00 0.19 0.19 97 1012.5
20260902122321 65 6 0.0 1.7 0.00 0.19 0.19 97 1012.5
20260902122101 65 6 0.0 1.7 0.00 0.19 0.19 97 1012.5
20260902122025 65 6 0.0 1.7 0.00 0.19 0.19 97 1012.6
20260902121852 65 6 0.0 1.7 0.00 0.19 0.19 97 1012.6
20260902121843 65 6 0.0 1.7 0.00 0.19 0.19 97 1012.6
20260902121816 65 6 0.0 1.7 0.00 0.19 0.19 97 1012.6
20260902121423 65 6 0.0 1.7 0.00 0.19 0.19 97 1012.6
20260902121323 65 6 0.0 1.7 0.00 0.19 0.19 97 1012.6
20260902121101 65 6 0.0 1.7 0.00 0.19 0.19 97 1012.5
20260902121020 65 6 0.0 1.7 0.00 0.19 0.19 97 1012.5
20260902120917 65 6 0.0 1.7 0.00 0.19 0.19 97 1012.5
20260902120619 65 6 0.0 1.7 0.00 0.19 0.19 97 1012.5
20260902120558 65 6 0.0 1.7 0.00 0.19 0.19 97 1012.5
20260902120417 65 6 0.0 1.7 0.00 0.19 0.19 97 1012.6
20260902120218 65 6 0.0 1.7 0.00 0.19 0.19 97 1012.7
20260902120101 65 6 0.0 2.6 0.00 0.19 0.19 97 1012.8
20260902120014 65 7 0.0 2.6 0.00 0.19 0.19 97 1012.8
20260902115915 65 4 0.0 2.6 0.00 0.19 0.19 97 1012.7
20260902115607 65 49 0.0 2.6 0.00 0.19 0.19 97 1012.6
20260902115555 65 49 0.0 2.6 0.00 0.19 0.19 97 1012.6
20260902115410 65 49 0.0 2.6 0.00 0.19 0.19 97 1012.5
20260902115204 65 44 0.0 2.6 0.00 0.19 0.19 97 1012.6
20260902115057 65 37 0.0 2.6 0.00 0.19 0.19 96 1012.6
20260902115001 65 38 0.0 2.6 0.00 0.19 0.19 96 1012.8
20260902114805 65 37 0.0 2.6 0.00 0.19 0.19 96 1012.7
20260902114759 65 65 0.0 1.7 0.00 0.19 0.19 96 1012.7
20260902114554 65 65 0.0 1.7 0.00 0.19 0.19 96 1012.7
20260902114402 65 32 0.0 1.7 0.00 0.19 0.19 96 1012.8
20260902114203 65 7 0.0 0.9 0.00 0.19 0.19 96 1012.9
20260902114055 65 7 0.0 0.9 0.00 0.19 0.19 96 1012.8
20260902113957 65 7 0.0 0.9 0.01 0.19 0.19 96 1012.8
20260902113755 66 27 0.0 0.9 0.01 0.19 0.19 96 1012.8
20260902113554 66 27 0.0 1.7 0.04 0.19 0.19 96 1012.8
20260902113358 66 25 0.0 1.7 0.08 0.19 0.19 96 1012.9
20260902113353 66 27 0.0 2.6 0.14 0.19 0.19 96 1012.9
20260902113054 66 27 0.0 2.6 0.14 0.19 0.19 96 1012.9
20260902112952 66 27 0.0 2.6 0.14 0.19 0.19 96 1012.8
20260902112745 66 27 0.0 3.5 0.14 0.19 0.19 96 1012.8
20260902112554 66 25 0.0 3.5 0.14 0.19 0.19 96 1012.7
20260902112547 66 27 0.0 3.5 0.14 0.19 0.19 96 1012.7
20260902112349 66 86 0.0 3.5 0.14 0.19 0.19 96 1012.8
20260902112141 66 48 0.0 3.5 0.14 0.19 0.19 96 1012.8
20260902112051 66 49 0.0 3.5 0.14 0.19 0.19 96 1012.8
20260902111948 66 21 0.0 2.6 0.14 0.19 0.19 96 1013.0
20260902111942 66 51 0.0 3.5 0.14 0.19 0.19 96 1013.0
20260902111540 67 16 0.0 2.6 0.14 0.19 0.19 96 1013.0
20260902111445 67 13 0.0 2.6 0.14 0.19 0.19 97 1013.0
20260902111141 67 13 0.0 2.6 0.14 0.19 0.19 97 1013.2
20260902111052 67 13 0.0 2.6 0.14 0.19 0.19 96 1013.2
20260902110939 67 14 0.0 2.6 0.14 0.19 0.19 96 1013.6
20260902110739 67 13 0.0 1.7 0.14 0.19 0.19 96 1013.8
20260902110538 67 13 0.0 1.7 0.14 0.19 0.19 96 1013.8
20260902110439 67 14 0.0 1.7 0.14 0.19 0.19 97 1013.8
20260902110138 67 13 0.0 2.6 0.14 0.19 0.19 97 1013.9
20260902110036 67 13 0.0 2.6 0.14 0.05 0.19 97 1013.9
20260902105736 67 13 0.0 2.6 0.14 0.05 0.19 96 1013.8
20260902105549 67 13 0.0 2.6 0.14 0.05 0.19 96 1013.7
20260902105536 67 13 0.0 2.6 0.14 0.05 0.19 96 1013.6
20260902105335 67 13 0.0 2.6 0.14 0.05 0.19 96 1013.6
20260902105135 67 185 0.0 3.5 0.14 0.05 0.19 96 1013.4
20260902105049 67 185 0.0 3.5 0.14 0.05 0.19 96 1013.4
20260902105034 67 185 0.0 3.5 0.14 0.05 0.19 96 1013.4
20260902104731 67 185 0.0 3.5 0.14 0.05 0.19 96 1013.1
20260902104626 67 193 0.0 3.5 0.14 0.05 0.19 96 1013.0
20260902104549 67 193 0.0 3.5 0.14 0.05 0.19 96 1013.0
20260902104329 67 195 0.0 3.5 0.14 0.05 0.19 96 1012.9
20260902104129 67 175 0.0 2.6 0.14 0.05 0.19 96 1012.8
20260902104049 67 176 0.0 2.6 0.14 0.05 0.18 96 1012.8
20260902103929 67 176 0.0 2.6 0.13 0.05 0.18 96 1012.9
20260902103731 67 196 0.0 3.5 0.13 0.05 0.17 96 1013.0
20260902103547 67 214 0.0 3.5 0.10 0.05 0.14 96 1013.2
20260902103529 67 216 0.0 3.5 0.10 0.05 0.14 96 1013.4
20260902103328 67 221 0.0 3.5 0.04 0.05 0.07 96 1014.1
20260902103230 67 197 0.0 5.2 0.00 0.05 0.05 96 1013.7
20260902103048 67 199 0.0 5.2 0.00 0.05 0.05 96 1013.7
20260902102928 67 199 0.0 5.2 0.00 0.05 0.05 96 1013.8
20260902102727 66 188 0.0 5.2 0.00 0.05 0.05 96 1013.8
20260902102528 66 189 0.0 5.2 0.00 0.05 0.05 96 1013.9
20260902102326 66 188 0.0 5.2 0.00 0.05 0.05 96 1013.8
20260902102225 66 200 0.0 3.5 0.00 0.05 0.05 96 1013.8
20260902102048 66 200 0.0 3.5 0.00 0.05 0.05 96 1013.8
20260902101927 66 200 0.0 3.5 0.00 0.05 0.05 96 1013.8
20260902101823 66 207 0.0 2.6 0.00 0.05 0.05 96 1013.8
20260902101522 66 206 0.0 2.6 0.00 0.05 0.05 96 1013.9
20260902101322 66 207 0.0 2.6 0.00 0.05 0.05 96 1013.9
20260902101123 66 206 0.0 2.6 0.00 0.05 0.05 96 1013.8
20260902101050 66 207 0.0 2.6 0.00 0.05 0.05 96 1013.8
20260902100915 66 207 0.0 2.6 0.00 0.05 0.05 96 1013.6
20260902100903 66 207 0.0 2.6 0.00 0.05 0.05 96 1013.7
20260902100825 66 206 0.0 3.5 0.00 0.05 0.05 96 1013.6
20260902100447 66 206 0.0 3.5 0.00 0.05 0.05 96 1013.5
20260902100352 66 206 0.0 3.5 0.00 0.05 0.05 96 1013.6
20260902100105 66 207 0.0 3.5 0.00 0.05 0.05 96 1013.5
20260902095848 66 207 0.0 3.5 0.00 0.05 0.05 96 1013.6
20260902095839 66 206 0.0 3.5 0.00 0.05 0.05 96 1013.4
20260902095815 66 206 0.0 3.5 0.00 0.05 0.05 96 1013.5
20260902095453 66 152 0.0 2.6 0.00 0.05 0.05 95 1013.3
20260902095447 66 162 0.0 3.5 0.00 0.05 0.05 96 1013.3
20260902095049 66 154 0.0 2.6 0.00 0.05 0.05 95 1013.1
20260902094851 66 152 0.0 2.6 0.00 0.05 0.05 95 1013.1
20260902094841 66 148 0.0 2.6 0.00 0.05 0.05 95 1013.2
20260902094816 66 148 0.0 2.6 0.00 0.05 0.05 95 1013.2
20260902094448 66 148 0.0 2.6 0.00 0.05 0.05 95 1013.2
20260902094249 66 147 0.0 1.7 0.00 0.05 0.05 95 1013.1
20260902094150 66 147 0.0 1.7 0.00 0.05 0.05 95 1013.0
20260902094048 66 147 0.0 1.7 0.00 0.05 0.05 95 1013.0
20260902093947 66 147 0.0 1.7 0.00 0.05 0.05 95 1012.9
20260902093841 66 147 0.0 1.7 0.00 0.05 0.05 95 1012.8
20260902093815 66 147 0.0 1.7 0.00 0.05 0.05 95 1012.9
20260902093449 66 147 0.0 0.9 0.00 0.05 0.05 95 1012.6
20260902093353 66 147 0.0 1.7 0.00 0.05 0.05 95 1012.5
20260902093336 66 147 0.0 1.7 0.00 0.05 0.05 95 1012.6
20260902093301 66 147 0.0 1.7 0.00 0.05 0.05 95 1012.5
20260902092846 66 145 0.0 2.6 0.00 0.05 0.05 95 1012.5
20260902092747 66 144 0.0 2.6 0.00 0.05 0.05 95 1012.5
20260902092558 66 144 0.0 2.6 0.00 0.05 0.05 95 1012.5
20260902092547 66 144 0.0 2.6 0.00 0.05 0.05 95 1012.5
20260902092354 66 47 0.0 2.6 0.00 0.05 0.05 95 1012.4
20260902092338 66 141 0.0 2.6 0.00 0.05 0.05 95 1012.5
20260902092305 66 47 0.0 2.6 0.00 0.05 0.05 95 1012.4
20260902091849 66 32 0.0 2.6 0.00 0.05 0.05 95 1012.2
20260902091648 66 118 0.0 2.6 0.00 0.05 0.05 95 1012.2
20260902091547 66 118 0.0 2.6 0.00 0.05 0.05 95 1012.3
20260902091449 66 120 0.0 2.6 0.00 0.05 0.05 95 1012.4
20260902091439 66 161 0.0 3.5 0.00 0.05 0.05 95 1012.4
20260902091350 66 182 0.0 4.3 0.00 0.05 0.05 95 1012.5
20260902091303 66 182 0.0 4.3 0.00 0.05 0.05 95 1012.5
20260902090846 66 183 0.0 4.3 0.00 0.05 0.05 95 1012.4
20260902090646 66 183 0.0 5.2 0.00 0.05 0.05 95 1012.5
20260902090559 66 182 0.0 5.2 0.00 0.05 0.05 95 1012.6
20260902090548 66 183 0.0 5.2 0.00 0.05 0.05 95 1012.5
20260902090404 66 183 0.0 5.2 0.00 0.05 0.05 95 1012.7
20260902090348 66 145 0.0 5.2 0.00 0.05 0.05 95 1012.7
20260902090316 66 183 0.0 5.2 0.00 0.05 0.05 95 1012.7
20260902085846 66 165 0.0 5.2 0.00 0.05 0.05 96 1012.6
20260902085750 65 214 0.0 4.3 0.00 0.05 0.05 95 1012.6
20260902085549 65 214 0.0 4.3 0.00 0.05 0.05 95 1012.7
20260902085449 65 214 0.0 4.3 0.00 0.05 0.05 95 1012.8
20260902085247 65 162 0.0 4.3 0.00 0.05 0.05 95 1012.7
20260902085204 65 148 0.0 2.6 0.00 0.05 0.05 95 1012.4
20260902085053 65 148 0.0 2.6 0.00 0.05 0.05 95 1012.4
20260902084846 65 120 0.0 1.7 0.00 0.05 0.05 95 1012.0
20260902084647 65 118 0.0 1.7 0.00 0.05 0.05 95 1012.1
20260902084545 65 118 0.0 1.7 0.00 0.05 0.05 95 1012.0
20260902084447 65 120 0.0 1.7 0.00 0.05 0.05 95 1012.0
20260902084439 65 118 0.0 2.6 0.00 0.05 0.05 95 1012.1
20260902084349 65 120 0.0 2.6 0.00 0.05 0.05 95 1011.9
20260902084305 65 120 0.0 2.6 0.00 0.05 0.05 95 1011.9
20260902083848 65 178 0.0 3.5 0.00 0.05 0.05 95 1012.0
20260902083748 65 124 0.0 6.1 0.00 0.05 0.05 95 1012.0
20260902083545 65 113 0.0 6.1 0.00 0.05 0.05 95 1011.9
20260902083446 65 133 0.0 6.1 0.01 0.05 0.05 95 1011.7
20260902083351 65 63 0.0 6.1 0.01 0.05 0.05 95 1011.4
20260902083334 65 149 0.0 6.1 0.01 0.05 0.05 95 1011.5
20260902083301 65 63 0.0 6.1 0.01 0.05 0.05 95 1011.4
20260902082946 65 79 0.0 6.1 0.01 0.05 0.05 95 1011.1
20260902082647 65 0 0.0 3.5 0.01 0.05 0.05 95 1011.0
20260902082547 65 7 0.0 3.5 0.01 0.05 0.05 95 1011.0
20260902082446 65 51 0.0 3.5 0.01 0.05 0.05 95 1010.9
20260902082347 65 34 0.0 3.5 0.02 0.05 0.05 95 1011.2
20260902082332 65 17 0.0 3.5 0.01 0.05 0.05 95 1010.9
20260902082259 65 34 0.0 3.5 0.02 0.05 0.05 95 1011.2
20260902081946 65 39 0.0 3.5 0.02 0.05 0.05 95 1011.4
20260902081649 66 11 0.0 3.5 0.02 0.05 0.05 95 1011.6
20260902081554 65 25 0.0 3.5 0.02 0.05 0.05 95 1011.7
20260902081545 66 24 0.0 3.5 0.02 0.05 0.05 95 1011.7
20260902081248 66 23 0.0 3.5 0.03 0.05 0.05 95 1011.7
20260902081047 66 23 0.0 3.5 0.03 0.05 0.05 95 1011.9
20260902080847 66 24 0.0 3.5 0.03 0.05 0.05 95 1012.0
20260902080646 66 1 0.0 6.1 0.03 0.05 0.05 95 1011.9
20260902080558 66 1 0.0 6.1 0.03 0.05 0.05 95 1011.8
20260902080546 66 1 0.0 6.1 0.03 0.05 0.05 95 1011.8
20260902080247 66 1 0.0 6.1 0.03 0.05 0.05 94 1011.8
20260902080157 66 32 0.0 6.1 0.03 0.05 0.05 94 1011.9
20260902080055 66 32 0.0 6.1 0.03 0.05 0.05 94 1011.9
20260902075847 66 31 0.0 6.1 0.00 0.02 0.05 94 1012.0
20260902075839 66 39 0.0 4.3 0.00 0.02 0.05 94 1012.5
20260902075817 66 39 0.0 4.3 0.00 0.02 0.05 94 1012.4
20260902075447 66 35 0.0 4.3 0.00 0.02 0.05 94 1012.6
20260902075248 66 27 0.0 2.6 0.00 0.02 0.05 94 1012.4
20260902075047 66 28 0.0 4.3 0.00 0.02 0.05 94 1012.2
20260902074916 67 28 0.0 4.3 0.00 0.02 0.05 94 1012.6
20260902074848 66 28 0.0 4.3 0.00 0.02 0.05 94 1012.4
20260902074835 67 28 0.0 4.3 0.00 0.02 0.05 94 1012.6
20260902074448 67 28 0.0 5.2 0.00 0.02 0.05 94 1012.7
20260902074347 67 28 0.0 5.2 0.00 0.02 0.05 94 1012.7
20260902074047 67 30 0.0 5.2 0.00 0.02 0.05 94 1012.7
20260902074033 67 30 0.0 5.2 0.00 0.02 0.05 94 1012.8
20260902073848 67 44 0.0 5.2 0.00 0.02 0.05 94 1012.7
20260902073826 67 25 0.0 5.2 0.01 0.02 0.04 94 1012.4
20260902073806 67 45 0.0 5.2 0.01 0.02 0.05 94 1012.5
20260902073448 67 154 0.0 5.2 0.01 0.02 0.04 94 1012.4
20260902073347 67 11 0.0 5.2 0.01 0.02 0.04 95 1012.3
20260902073047 67 11 0.0 8.7 0.01 0.02 0.04 95 1012.4
20260902073031 67 49 0.0 8.7 0.01 0.02 0.04 95 1012.2
20260902072948 67 32 0.0 8.7 0.02 0.02 0.04 94 1012.2
20260902072646 67 11 0.0 8.7 0.02 0.02 0.04 94 1012.2
20260902072530 67 18 0.0 8.7 0.02 0.02 0.04 94 1012.1
20260902072448 67 24 0.0 8.7 0.02 0.02 0.04 94 1012.0
20260902072247 67 30 0.0 8.7 0.02 0.02 0.04 94 1012.1
20260902072032 67 32 0.0 6.1 0.02 0.02 0.03 94 1012.2
20260902071949 67 32 0.0 6.1 0.02 0.02 0.03 94 1012.2
20260902071828 67 21 0.0 6.1 0.02 0.02 0.03 94 1012.2
20260902071824 67 34 0.0 6.1 0.02 0.02 0.03 93 1012.3
20260902071805 67 51 0.0 6.1 0.02 0.02 0.03 94 1012.1
20260902071233 67 35 0.0 3.5 0.02 0.02 0.02 93 1012.5
20260902071036 0 35 0.0 0.0 0.00 0.00 0.00 1012.6
20260902070927 0 0.0 0.0 0.02 0.02 0.02
20260902070634 0 0.0 0.0 0.02 0.02 0.02
20260902070334 0 0.0 0.0 0.02 0.02 0.02
20260902070211 0 0.0 0.0 0.02 0.02 0.02
20260902070131 0 0.0 0.0 0.02 0.02 0.02
20260902065916 0 0.0 0.0 0.00 0.00 0.02 1014.3
20260902065911 0 0.0 0.0 0.00 0.00 0.02
20260902065856 0 0.0 0.0 0.00 0.00 0.02 1014.3
20260902065435 0 0.0 0.0 0.00 0.00 0.02 1014.3
20260902065235 0 0.0 0.0 0.00 0.00 0.02 1014.3
20260902065137 69 23 0.0 0.0 0.00 0.00 0.02 90 1014.3
20260902065104 69 23 0.0 0.0 0.00 0.00 0.02 90 1014.3
20260902064850 69 23 0.0 5.2 0.00 0.00 0.02 90 1014.5
20260902064843 69 23 0.0 0.0 0.00 0.00 0.02 90 1014.3
20260902064407 69 23 0.0 5.2 0.00 0.00 0.02 90 1014.6
20260902064202 69 23 0.0 5.2 0.00 0.00 0.02 90 1014.8
20260902064100 69 49 0.0 7.8 0.00 0.00 0.02 91 1015.0
20260902064002 69 133 0.0 7.8 0.00 0.00 0.02 91 1015.1
20260902063801 69 165 0.0 7.8 0.00 0.00 0.01 91 1015.3
20260902063710 70 152 0.0 12.2 0.00 0.00 0.01 92 1015.5
20260902063601 70 152 0.0 12.2 0.00 0.00 0.01 92 1015.5
20260902063400 70 166 0.0 12.2 0.00 0.00 0.01 92 1015.6
20260902063158 70 168 0.0 12.2 0.00 0.00 0.01 92 1015.9
20260902063058 70 183 0.0 12.2 0.00 0.00 0.00 93 1015.9
20260902062958 70 189 0.0 12.2 0.00 0.00 0.00 93 1015.8
20260902062948 70 169 0.0 12.2 0.00 0.00 0.00 93 1016.1
20260902062906 70 144 0.0 9.6 0.00 0.00 0.00 94 1016.3
20260902062820 70 144 0.0 9.6 0.00 0.00 0.00 94 1016.3
20260902062009 70 195 0.0 8.7 0.01 0.00 0.01 95 1016.6
20260902061809 70 195 0.0 8.7 0.01 0.00 0.01 95 1016.4
20260902061706 70 195 0.0 8.7 0.01 0.00 0.01 95 1016.2
20260902061506 70 212 0.0 8.7 0.01 0.00 0.01 95 1015.8
20260902061307 70 196 0.0 7.8 0.01 0.00 0.01 95 1015.4
20260902061106 70 192 0.0 7.8 0.01 0.00 0.01 96 1015.2
20260902061009 70 189 0.0 5.2 0.01 0.00 0.01 96 1015.0
20260902060808 70 197 0.0 5.2 0.01 0.00 0.01 96 1014.7
20260902060706 70 188 0.0 5.2 0.00 0.00 0.00 96 1014.7
20260902060607 70 173 0.0 2.6 0.00 0.00 0.00 96 1014.4
20260902060309 70 151 0.0 0.0 0.00 0.00 0.00 96 1014.2
20260902060106 70 149 0.0 0.0 0.00 0.00 0.00 96 1013.9
20260902060058 70 149 0.0 0.0 0.00 0.00 0.00 96 1013.5
20260902060032 70 149 0.0 0.0 0.00 0.00 0.00 96 1013.7
20260902055705 70 148 0.0 0.0 0.00 0.00 0.00 96 1013.4
20260902055601 70 149 0.0 0.0 0.00 0.00 0.00 96 1013.3
20260902055307 70 148 0.0 0.0 0.00 0.00 0.00 96 1013.2
20260902055209 70 147 0.0 0.0 0.00 0.00 0.00 96 1013.2
20260902055114 70 149 0.0 0.0 0.00 0.00 0.00 96 1012.6
20260902055045 70 148 0.0 0.0 0.00 0.00 0.00 96 1012.9
20260902054705 70 148 0.0 0.0 0.00 0.00 0.00 96 1012.5
20260902054506 70 35 0.0 0.0 0.00 0.00 0.00 96 1012.1
20260902054408 70 35 0.0 0.0 0.00 0.00 0.00 96 1011.9
20260902054308 70 35 0.0 0.0 0.00 0.00 0.00 96 1011.9
20260902054109 70 35 0.0 0.0 0.00 0.00 0.00 96 1012.0
20260902054102 70 37 0.0 0.0 0.00 0.00 0.00 96 1011.9
20260902054034 70 37 0.0 0.0 0.00 0.00 0.00 96 1011.9
20260902053705 70 35 0.0 0.0 0.00 0.00 0.00 96 1011.9
20260902053609 70 37 0.0 0.0 0.00 0.00 0.00 96 1011.8
20260902053309 70 37 0.0 0.0 0.00 0.00 0.00 96 1012.1
20260902053138 70 37 0.0 0.0 0.00 0.00 0.00 96 1012.6
20260902053108 70 37 0.0 0.0 0.00 0.00 0.00 96 1012.4
20260902053101 70 37 0.0 0.0 0.00 0.00 0.00 96 1012.6
20260902052707 70 37 0.0 0.0 0.00 0.00 0.00 96 1012.5
20260902052506 70 35 0.0 0.0 0.00 0.00 0.00 95 1012.4
20260902052307 70 35 0.0 0.0 0.00 0.00 0.00 95 1012.4
20260902052208 70 37 0.0 0.0 0.00 0.00 0.00 95 1012.4
20260902052100 70 37 0.0 0.0 0.00 0.00 0.00 96 1012.8
20260902052033 70 38 0.0 0.0 0.00 0.00 0.00 95 1012.7
20260902051705 70 37 0.0 0.0 0.00 0.00 0.00 96 1012.9
20260902051602 70 202 0.0 0.0 0.00 0.00 0.00 96 1013.4
20260902051307 70 202 0.0 0.0 0.00 0.00 0.00 96 1013.7
20260902051132 70 202 0.0 0.0 0.00 0.00 0.00 96 1014.0
20260902051127 70 202 0.0 0.0 0.00 0.00 0.00 96 1014.0
20260902051119 70 202 0.0 0.0 0.00 0.00 0.00 96 1013.7
20260902051049 70 202 0.0 0.0 0.00 0.00 0.00 96 1014.0
20260902050610 70 200 0.0 0.0 0.00 0.00 0.00 96 1014.1
20260902050311 70 202 0.0 0.0 0.00 0.00 0.00 96 1014.2
20260902050304 70 202 0.0 0.0 0.00 0.00 0.00 96 1014.3
20260902050206 70 202 0.0 0.0 0.00 0.00 0.00 96 1014.3
20260902050059 69 200 0.0 0.0 0.00 0.00 0.00 96 1014.3
20260902050030 70 202 0.0 0.0 0.00 0.00 0.00 96 1014.3
20260902045701 69 202 0.0 0.0 0.00 0.00 0.00 96 1014.3
20260902045501 69 202 0.0 0.0 0.00 0.00 0.00 96 1014.2
20260902045309 69 200 0.0 0.0 0.00 0.00 0.00 96 1014.1
20260902045300 69 202 0.0 0.0 0.00 0.00 0.00 96 1014.0
20260902045207 69 202 0.0 0.0 0.00 0.00 0.00 95 1013.5
20260902045111 69 200 0.0 0.0 0.00 0.00 0.00 95 1013.6
20260902045102 69 202 0.0 0.0 0.00 0.00 0.00 96 1013.8
20260902045030 69 202 0.0 0.0 0.00 0.00 0.00 95 1013.6
20260902044455 69 202 0.0 0.0 0.00 0.00 0.00 95 1013.4
20260902044312 69 202 0.0 0.0 0.00 0.00 0.00 95 1013.3
20260902044304 69 202 0.0 0.0 0.00 0.00 0.00 95 1013.3
20260902044056 69 202 0.0 0.0 0.00 0.00 0.00 95 1013.2
20260902043856 69 202 0.0 0.0 0.00 0.00 0.00 95 1013.1
20260902043809 69 200 0.0 0.0 0.00 0.00 0.00 95 1013.1
20260902043801 69 200 0.0 0.0 0.00 0.00 0.00 95 1013.1
20260902043454 69 202 0.0 0.0 0.00 0.00 0.00 95 1013.1
20260902043351 69 202 0.0 0.0 0.00 0.00 0.00 95 1012.9
20260902043306 69 200 0.0 0.0 0.00 0.00 0.00 95 1013.0
20260902043051 69 202 0.0 0.0 0.00 0.00 0.00 95 1012.9
20260902042852 69 202 0.0 0.0 0.00 0.00 0.00 95 1012.8
20260902042803 69 202 0.0 0.0 0.00 0.00 0.00 95 1012.7
20260902042649 69 200 0.0 0.0 0.00 0.00 0.00 95 1012.6
20260902042450 69 202 0.0 0.0 0.00 0.00 0.00 95 1012.7
20260902042350 69 202 0.0 0.0 0.00 0.00 0.00 95 1012.7
20260902042308 69 200 0.0 0.0 0.00 0.00 0.00 95 1012.7
20260902042048 69 202 0.0 0.0 0.00 0.00 0.00 94 1012.7
20260902041849 69 200 0.0 0.0 0.00 0.00 0.00 95 1012.7
20260902041756 69 202 0.0 0.0 0.00 0.00 0.00 95 1012.7
20260902041648 69 200 0.0 0.0 0.00 0.00 0.00 95 1012.7
20260902041447 69 202 0.0 0.0 0.00 0.00 0.00 95 1012.8
20260902041345 69 202 0.0 0.0 0.00 0.00 0.00 95 1012.8
20260902041257 69 202 0.0 0.0 0.00 0.00 0.00 95 1012.8
20260902041044 69 202 0.0 0.0 0.00 0.00 0.00 95 1012.7
20260902040944 69 202 0.0 0.0 0.00 0.00 0.00 95 1012.7
20260902040759 69 200 0.0 0.0 0.00 0.00 0.00 95 1012.7
20260902040644 69 200 0.0 0.0 0.00 0.00 0.00 95 1012.8
20260902040441 69 202 0.0 0.0 0.00 0.00 0.00 95 1012.6
20260902040254 69 200 0.0 0.0 0.00 0.00 0.00 95 1012.7
20260902040239 69 202 0.0 0.0 0.00 0.00 0.00 95 1012.7
20260902040036 69 202 0.0 0.0 0.00 0.00 0.00 95 1012.7
20260902035936 69 202 0.0 0.0 0.00 0.00 0.00 95 1012.6
20260902035756 69 202 0.0 0.0 0.00 0.00 0.00 94 1012.8
20260902035635 69 202 0.0 0.0 0.00 0.00 0.00 94 1012.8
20260902035534 69 200 0.0 0.0 0.00 0.00 0.00 94 1012.9
20260902035234 69 202 0.0 0.0 0.00 0.00 0.00 94 1012.8
20260902035032 69 202 0.0 0.0 0.00 0.00 0.00 94 1012.7
20260902034831 69 202 0.0 0.0 0.00 0.00 0.00 94 1012.7
20260902034755 69 202 0.0 0.0 0.00 0.00 0.00 94 1012.7
20260902034630 69 202 0.0 0.0 0.00 0.00 0.00 94 1012.7
20260902034429 69 202 0.0 0.0 0.00 0.00 0.00 94 1012.7
20260902034326 69 202 0.0 0.0 0.00 0.00 0.00 94 1012.7
20260902034254 69 202 0.0 0.0 0.00 0.00 0.00 94 1012.7
20260902034029 69 202 0.0 0.0 0.00 0.00 0.00 94 1012.8
20260902033829 69 200 0.0 0.0 0.00 0.00 0.00 94 1012.8
20260902033752 69 202 0.0 0.0 0.00 0.00 0.00 94 1012.9
20260902033630 69 202 0.0 0.0 0.00 0.00 0.00 94 1012.9
20260902033434 69 200 0.0 0.0 0.00 0.00 0.00 94 1013.1
20260902033326 69 200 0.0 0.0 0.00 0.00 0.00 94 1013.1
20260902033251 69 202 0.0 0.0 0.00 0.00 0.00 94 1013.1
20260902033027 69 202 0.0 0.0 0.00 0.00 0.00 94 1013.3
20260902032925 69 202 0.0 0.0 0.00 0.00 0.00 94 1013.3
20260902032752 69 202 0.0 0.0 0.00 0.00 0.00 94 1013.3
20260902032626 69 202 0.0 0.0 0.00 0.00 0.00 94 1013.4
20260902032424 69 202 0.0 0.0 0.00 0.00 0.00 94 1013.5
20260902032224 69 202 0.0 0.0 0.00 0.00 0.00 94 1013.6
20260902032022 69 200 0.0 0.0 0.00 0.00 0.00 94 1013.6
20260902031920 69 202 0.0 0.0 0.00 0.00 0.00 94 1013.6
20260902031748 69 200 0.0 0.0 0.00 0.00 0.00 94 1013.5
20260902031627 70 202 0.0 0.0 0.00 0.00 0.00 93 1013.6
20260902031622 70 200 0.0 0.0 0.00 0.00 0.00 94 1013.6
20260902031541 70 200 0.0 0.0 0.00 0.00 0.00 93 1013.6
20260902031220 70 200 0.0 0.0 0.00 0.00 0.00 93 1013.6
20260902031050 70 202 0.0 0.0 0.00 0.00 0.00 93 1013.6
20260902031042 70 202 0.0 0.0 0.00 0.00 0.00 94 1013.6
20260902031013 70 202 0.0 0.0 0.00 0.00 0.00 94 1013.6
20260902030617 70 202 0.0 0.0 0.00 0.00 0.00 93 1013.5
20260902030417 70 202 0.0 0.0 0.00 0.00 0.00 93 1013.5
20260902030246 70 200 0.0 0.0 0.00 0.00 0.00 93 1013.5
20260902030216 70 202 0.0 0.0 0.00 0.00 0.00 93 1013.5
20260902030105 70 200 0.0 0.0 0.00 0.00 0.00 93 1013.5
20260902030048 70 202 0.0 0.0 0.00 0.00 0.00 93 1013.5
20260902030005 70 200 0.0 0.0 0.00 0.00 0.00 93 1013.5
20260902025412 70 202 0.0 0.0 0.00 0.00 0.00 93 1013.4
20260902025247 70 199 0.0 0.0 0.00 0.00 0.00 93 1013.3
20260902025211 70 200 0.0 0.0 0.00 0.00 0.00 93 1013.3
20260902025052 70 200 0.0 0.0 0.00 0.00 0.00 92 1013.2
20260902025038 70 202 0.0 0.0 0.00 0.00 0.00 92 1013.3
20260902025006 70 200 0.0 0.0 0.00 0.00 0.00 92 1013.3
20260902024610 70 202 0.0 0.0 0.00 0.00 0.00 93 1013.2
20260902024409 70 200 0.0 0.0 0.00 0.00 0.00 92 1013.2
20260902024359 70 202 0.0 0.0 0.00 0.00 0.00 92 1013.3
20260902024246 70 202 0.0 0.0 0.00 0.00 0.00 92 1013.3
20260902024013 70 202 0.0 0.0 0.00 0.00 0.00 92 1013.3
20260902023810 70 200 0.0 0.0 0.00 0.00 0.00 92 1013.2
20260902023746 70 203 0.0 0.0 0.00 0.00 0.00 92 1013.2
20260902023606 70 200 0.0 0.0 0.00 0.00 0.00 92 1013.2
20260902023405 70 200 0.0 0.0 0.00 0.00 0.00 92 1013.3
20260902023247 70 200 0.0 0.0 0.00 0.00 0.00 92 1013.2
20260902023203 70 202 0.0 0.0 0.00 0.00 0.00 92 1013.3
20260902023125 70 202 0.0 0.0 0.00 0.00 0.00 92 1013.4
20260902023053 71 200 0.0 0.0 0.00 0.00 0.00 92 1013.3
20260902023033 71 202 0.0 0.0 0.00 0.00 0.00 92 1013.3
20260902022604 71 200 0.0 0.0 0.00 0.00 0.00 92 1013.2
20260902022402 71 200 0.0 0.0 0.00 0.00 0.00 92 1013.1
20260902022237 71 200 0.0 0.0 0.00 0.00 0.00 92 1013.2
20260902022124 71 203 0.0 0.0 0.00 0.00 0.00 92 1013.1
20260902022035 71 202 0.0 0.0 0.00 0.00 0.00 92 1013.2
20260902021955 71 200 0.0 0.0 0.00 0.00 0.00 92 1013.2
20260902021602 71 203 0.0 0.0 0.00 0.00 0.00 91 1013.2
20260902021402 71 200 0.0 0.0 0.00 0.00 0.00 91 1013.3
20260902021238 71 200 0.0 0.0 0.00 0.00 0.00 91 1013.3
20260902021201 71 200 0.0 0.0 0.00 0.00 0.00 91 1013.3
20260902021053 71 200 0.0 0.0 0.00 0.00 0.00 91 1013.3
20260902021034 71 203 0.0 0.0 0.00 0.00 0.00 91 1013.3
20260902021021 71 202 0.0 0.0 0.00 0.00 0.00 91 1013.3
20260902020656 71 203 0.0 0.0 0.00 0.00 0.00 91 1013.4
20260902020358 71 202 0.0 0.0 0.00 0.00 0.00 91 1013.4
20260902020235 71 202 0.0 0.0 0.00 0.00 0.00 91 1013.3
20260902020156 71 200 0.0 0.0 0.00 0.00 0.00 91 1013.4
20260902015957 72 200 0.0 0.0 0.00 0.00 0.00 91 1013.4
20260902015752 72 200 0.0 0.0 0.00 0.00 0.00 91 1013.3
20260902015730 72 202 0.0 0.0 0.00 0.00 0.00 91 1013.3
20260902015552 72 200 0.0 0.0 0.00 0.00 0.00 91 1013.3
20260902015454 72 202 0.0 0.0 0.00 0.00 0.00 91 1013.4
20260902015250 72 202 0.0 0.0 0.00 0.00 0.00 91 1013.3
20260902015231 72 202 0.0 0.0 0.00 0.00 0.00 90 1013.3
20260902014951 72 200 0.0 0.0 0.00 0.00 0.00 91 1013.3
20260902014750 72 200 0.0 0.0 0.00 0.00 0.00 90 1013.2
20260902014732 72 202 0.0 0.0 0.00 0.00 0.00 90 1013.2
20260902014550 72 202 0.0 0.0 0.00 0.00 0.00 90 1013.1
20260902014350 72 202 0.0 0.0 0.00 0.00 0.00 90 1013.1
20260902014232 72 202 0.0 0.0 0.00 0.00 0.00 90 1013.0
20260902014149 72 202 0.0 0.0 0.00 0.00 0.00 90 1013.0
20260902013950 72 200 0.0 0.0 0.00 0.00 0.00 90 1013.0
20260902013723 73 202 0.0 0.0 0.00 0.00 0.00 90 1013.0
20260902013647 73 200 0.0 0.0 0.00 0.00 0.00 90 1013.0
20260902013443 73 202 0.0 0.0 0.00 0.00 0.00 90 1013.0
20260902013223 73 200 0.0 0.0 0.00 0.00 0.00 89 1013.0
20260902013144 73 200 0.0 0.0 0.00 0.00 0.00 89 1013.1
20260902012946 73 202 0.0 0.0 0.00 0.00 0.00 89 1013.0
20260902012743 73 202 0.0 0.0 0.00 0.00 0.00 89 1013.1
20260902012722 73 200 0.0 0.0 0.00 0.00 0.00 89 1013.1
20260902012543 73 202 0.0 0.0 0.00 0.00 0.00 89 1013.0
20260902012343 73 202 0.0 0.0 0.00 0.00 0.00 89 1013.1
20260902012240 74 202 0.0 0.0 0.00 0.00 0.00 88 1013.0
20260902012213 74 200 0.0 0.0 0.00 0.00 0.00 88 1013.0
20260902012045 74 200 0.0 0.0 0.00 0.00 0.00 88 1012.9
20260902011741 74 200 0.0 0.0 0.00 0.00 0.00 88 1013.0
20260902011712 74 199 0.0 0.0 0.00 0.00 0.00 88 1013.0
20260902011541 74 200 0.0 0.0 0.00 0.00 0.00 88 1013.0
20260902011456 74 200 0.0 0.0 0.00 0.00 0.00 87 1013.0
20260902011439 74 202 0.0 0.0 0.00 0.00 0.00 87 1013.0
20260902011140 74 202 0.0 0.0 0.00 0.00 0.00 87 1013.0
20260902010939 75 202 0.0 0.0 0.00 0.00 0.00 87 1012.9
20260902010838 75 200 0.0 0.0 0.00 0.00 0.00 87 1012.9
20260902010706 75 202 0.0 0.0 0.00 0.00 0.00 87 1012.9
20260902010638 75 200 0.0 0.0 0.00 0.00 0.00 87 1012.9
20260902010336 75 200 0.0 0.0 0.00 0.00 0.00 86 1012.8
20260902010231 75 200 0.0 0.0 0.00 0.00 0.00 86 1012.9
20260902010205 75 200 0.0 0.0 0.00 0.00 0.00 86 1012.9
20260902005935 75 202 0.0 0.0 0.00 0.00 0.00 86 1012.9
20260902005834 76 202 0.0 0.0 0.00 0.00 0.00 86 1012.9
20260902005705 76 200 0.0 0.0 0.00 0.00 0.00 86 1012.9
20260902005535 76 202 0.0 0.0 0.00 0.00 0.00 86 1012.8
20260902005333 76 202 0.0 0.0 0.00 0.00 0.00 85 1012.9
20260902005205 76 203 0.0 0.0 0.00 0.00 0.00 85 1012.9
20260902005133 76 200 0.0 0.0 0.00 0.00 0.00 85 1012.9
20260902004933 76 200 0.0 0.0 0.00 0.00 0.00 85 1012.9
20260902004834 76 200 0.0 0.0 0.00 0.00 0.00 85 1012.9
20260902004704 76 200 0.0 0.0 0.00 0.00 0.00 85 1012.9
20260902004530 76 202 0.0 0.0 0.00 0.00 0.00 85 1012.9
20260902004435 76 202 0.0 0.0 0.00 0.00 0.00 84 1012.9
20260902004203 77 202 0.0 0.0 0.00 0.00 0.00 84 1012.9
20260902004131 77 202 0.0 0.0 0.00 0.00 0.00 84 1012.9
20260902003932 77 202 0.0 0.0 0.00 0.00 0.00 84 1012.9
20260902003730 77 203 0.0 0.0 0.00 0.00 0.00 84 1012.9
20260902003704 77 200 0.0 0.0 0.00 0.00 0.00 84 1012.9
20260902003532 77 200 0.0 0.0 0.00 0.00 0.00 84 1012.8
20260902003426 77 202 0.0 0.0 0.00 0.00 0.00 83 1012.7
20260902003203 77 200 0.0 0.0 0.00 0.00 0.00 83 1012.9
20260902003133 77 202 0.0 0.0 0.00 0.00 0.00 83 1012.9
20260902003034 77 202 0.0 0.0 0.00 0.00 0.00 83 1012.8
20260902002734 78 202 0.0 0.0 0.00 0.00 0.00 83 1012.9
20260902002704 78 200 0.0 0.0 0.00 0.00 0.00 82 1012.8
20260902002534 78 199 0.0 0.0 0.00 0.00 0.00 82 1012.9
20260902002321 78 200 0.0 0.0 0.00 0.00 0.00 82 1013.0
20260902002317 78 202 0.0 0.0 0.00 0.00 0.00 82 1012.9
20260902002203 78 202 0.0 0.0 0.00 0.00 0.00 82 1013.0
20260902001919 78 203 0.0 0.0 0.00 0.00 0.00 82 1012.9
20260902001716 78 202 0.0 0.0 0.00 0.00 0.00 81 1013.0
20260902001703 78 202 0.0 0.0 0.00 0.00 0.00 81 1013.1
20260902001517 78 200 0.0 0.0 0.00 0.00 0.00 81 1013.0
20260902001315 78 202 0.0 0.0 0.00 0.00 0.00 79 1013.1
20260902001203 78 202 0.0 0.0 0.00 0.00 0.00 79 1013.0
20260902001115 78 200 0.0 0.0 0.00 0.00 0.00 79 1013.0
20260902000921 79 202 0.0 0.0 0.00 0.00 0.00 79 1013.2
20260902000915 79 202 0.0 0.0 0.00 0.00 0.00 79 1013.1
20260902000708 79 200 0.0 0.0 0.00 0.00 0.00 79 1013.2
20260902000513 79 202 0.0 0.0 0.00 0.00 0.00 79 1013.2
20260902000313 79 202 0.0 0.0 0.00 0.00 0.00 79 1013.3
20260902000207 79 202 0.0 0.0 0.00 0.00 0.00 78 1013.1
20260902000111 79 200 0.0 0.0 0.00 0.00 0.00 79 1013.1
20260901235911 79 200 0.0 0.0 0.00 0.00 0.00 78 1013.2
20260901235715 79 202 0.0 0.0 0.00 0.00 0.00 78 1013.2
20260901235709 79 200 0.0 0.0 0.00 0.00 0.00 78 1013.2
20260901235514 80 200 0.0 0.0 0.00 0.00 0.00 78 1013.3
20260901235509 80 200 0.0 0.0 0.00 0.00 0.00 79 1013.2
20260901235219 80 202 0.0 0.0 0.00 0.00 0.00 78 1013.3
20260901235111 80 200 0.0 0.0 0.00 0.00 0.00 78 1013.3
20260901235009 80 202 0.0 0.0 0.00 0.00 0.00 79 1013.2
20260901234954 80 200 0.0 0.0 0.00 0.00 0.00 79 1013.3
20260901234922 80 200 0.0 0.0 0.00 0.00 0.00 79 1013.2
20260901234507 80 202 0.0 0.0 0.00 0.00 0.00 78 1013.2
20260901234307 80 202 0.0 0.0 0.00 0.00 0.00 78 1013.2
20260901234206 80 202 0.0 0.0 0.00 0.00 0.00 78 1013.3
20260901234106 80 202 0.0 0.0 0.00 0.00 0.00 78 1013.3
20260901233907 80 202 0.0 0.0 0.00 0.00 0.00 78 1013.2
20260901233817 80 202 0.0 0.0 0.00 0.00 0.00 78 1013.3
20260901233708 80 202 0.0 0.0 0.00 0.00 0.00 78 1013.3
20260901233508 80 202 0.0 0.0 0.00 0.00 0.00 77 1013.2
20260901233408 81 200 0.0 0.0 0.00 0.00 0.00 77 1013.2
20260901233207 81 202 0.0 0.0 0.00 0.00 0.00 77 1013.2
20260901233106 81 202 0.0 0.0 0.00 0.00 0.00 76 1013.1
20260901232906 80 202 0.0 0.0 0.00 0.00 0.00 75 1013.2
20260901232724 80 202 0.0 0.0 0.00 0.00 0.00 75 1013.2
20260901232507 81 202 0.0 0.0 0.00 0.00 0.00 75 1013.2
20260901232406 81 202 0.0 0.0 0.00 0.00 0.00 75 1013.2
20260901232209 81 202 0.0 0.0 0.00 0.00 0.00 74 1013.2
20260901232107 81 200 0.0 0.0 0.00 0.00 0.00 74 1013.2
20260901232005 81 202 0.0 0.0 0.00 0.00 0.00 75 1013.2
20260901231707 81 200 0.0 0.0 0.00 0.00 0.00 75 1013.2
20260901231506 81 200 0.0 0.0 0.00 0.00 0.00 74 1013.2
20260901231306 81 202 0.0 0.0 0.00 0.00 0.00 74 1013.2
20260901231208 81 202 0.0 0.0 0.00 0.00 0.00 74 1013.2
20260901231106 81 200 0.0 0.0 0.00 0.00 0.00 74 1013.2
20260901231009 81 200 0.0 0.0 0.00 0.00 0.00 74 1013.3
20260901230707 81 200 0.0 0.0 0.00 0.00 0.00 74 1013.2
20260901230606 81 200 0.0 0.0 0.00 0.00 0.00 74 1013.2
20260901230306 81 200 0.0 0.0 0.00 0.00 0.00 74 1013.2
20260901230206 81 202 0.0 0.0 0.00 0.00 0.00 74 1013.2
20260901230107 81 200 0.0 0.0 0.00 0.00 0.00 74 1013.2
20260901230053 81 202 0.0 0.0 0.00 0.00 0.00 75 1013.2
20260901230006 81 200 0.0 0.0 0.00 0.00 0.00 76 1013.2
20260901225921 81 200 0.0 0.0 0.00 0.00 0.00 76 1013.2
20260901225608 81 200 0.0 0.0 0.00 0.00 0.00 76 1013.2
20260901225306 81 202 0.0 0.0 0.00 0.00 0.00 76 1013.1
20260901225206 81 200 0.0 0.0 0.00 0.00 0.00 76 1013.1
20260901225106 81 200 0.0 0.0 0.00 0.00 0.00 75 1013.1
20260901225001 82 202 0.0 0.0 0.00 0.00 0.00 76 1013.2
20260901224950 81 202 0.0 0.0 0.00 0.00 0.00 75 1013.1
20260901224921 82 202 0.0 0.0 0.00 0.00 0.00 76 1013.2
20260901224608 82 200 0.0 0.0 0.00 0.00 0.00 75 1013.1
20260901224306 82 202 0.0 0.0 0.00 0.00 0.00 75 1013.1
20260901224219 82 202 0.0 0.0 0.00 0.00 0.00 74 1013.2
20260901224206 82 200 0.0 0.0 0.00 0.00 0.00 75 1013.1
20260901223958 82 200 0.0 0.0 0.00 0.00 0.00 72 1013.3
20260901223947 82 199 0.0 0.0 0.00 0.00 0.00 72 1013.1
20260901223921 82 200 0.0 0.0 0.00 0.00 0.00 72 1013.3
20260901223508 82 202 0.0 0.0 0.00 0.00 0.00 73 1013.3
20260901223306 82 200 0.0 0.0 0.00 0.00 0.00 73 1013.2
20260901223215 82 200 0.0 0.0 0.00 0.00 0.00 74 1013.2
20260901223206 82 199 0.0 0.0 0.00 0.00 0.00 75 1013.2
20260901222955 82 199 0.0 0.0 0.00 0.00 0.00 73 1013.3
20260901222944 82 202 0.0 0.0 0.00 0.00 0.00 74 1013.3
20260901222507 82 200 0.0 0.0 0.00 0.00 0.00 72 1013.2
20260901222457 82 200 0.0 0.0 0.00 0.00 0.00 73 1013.2
20260901222436 82 200 0.0 0.0 0.00 0.00 0.00 73 1013.2
20260901222107 82 200 0.0 0.0 0.00 0.00 0.00 74 1013.3
20260901222006 82 200 0.0 0.0 0.00 0.00 0.00 74 1013.2
20260901221715 82 200 0.0 0.0 0.00 0.00 0.00 75 1013.2
20260901221606 82 202 0.0 0.0 0.00 0.00 0.00 76 1013.2
20260901221452 82 200 0.0 0.0 0.00 0.00 0.00 74 1013.2
20260901221432 82 200 0.0 0.0 0.00 0.00 0.00 74 1013.2
20260901221107 82 200 0.0 0.0 0.00 0.00 0.00 74 1013.3
20260901220903 82 200 0.0 0.0 0.00 0.00 0.00 75 1013.1
20260901220717 82 200 0.0 0.0 0.00 0.00 0.00 74 1013.2
20260901220608 82 202 0.0 0.0 0.00 0.00 0.00 75 1013.1
20260901220507 82 200 0.0 0.0 0.00 0.00 0.00 72 1013.2
20260901220458 82 200 0.0 0.0 0.00 0.00 0.00 72 1013.2
20260901220434 82 200 0.0 0.0 0.00 0.00 0.00 72 1013.2
20260901215903 83 200 0.0 0.0 0.00 0.00 0.00 72 1013.1
20260901215704 83 202 0.0 0.0 0.00 0.00 0.00 71 1013.1
20260901215525 83 200 0.0 0.0 0.00 0.00 0.00 73 1013.1
20260901215520 83 202 0.0 0.0 0.00 0.00 0.00 72 1013.1
20260901215514 83 202 0.0 0.0 0.00 0.00 0.00 72 1013.1
20260901215446 83 200 0.0 0.0 0.00 0.00 0.00 73 1013.1
20260901214907 83 200 0.0 0.0 0.00 0.00 0.00 72 1013.2
20260901214811 83 200 0.0 0.0 0.00 0.00 0.00 71 1013.1
20260901214709 83 200 0.0 0.0 0.00 0.00 0.00 71 1013.1
20260901214507 83 200 0.0 0.0 0.00 0.00 0.00 69 1013.1
20260901214307 83 200 0.0 0.0 0.00 0.00 0.00 70 1013.1
20260901214219 83 199 0.0 0.0 0.00 0.00 0.00 70 1013.1
20260901214106 83 200 0.0 0.0 0.00 0.00 0.00 69 1013.1
20260901214022 84 200 0.0 1.7 0.00 0.00 0.00 71 1013.1
20260901213957 83 200 0.0 0.9 0.00 0.00 0.00 69 1013.1
20260901213933 84 200 0.0 1.7 0.00 0.00 0.00 71 1013.1
20260901213506 84 200 0.0 3.5 0.00 0.00 0.00 70 1013.2
20260901213307 84 200 0.0 3.5 0.00 0.00 0.00 66 1013.1
20260901213208 84 200 0.0 3.5 0.00 0.00 0.00 66 1013.0
20260901213107 84 200 0.0 3.5 0.00 0.00 0.00 66 1013.1
20260901213046 84 202 0.0 3.5 0.00 0.00 0.00 68 1013.1
20260901212955 84 200 0.0 3.5 0.00 0.00 0.00 64 1013.1
20260901212507 84 206 0.0 1.7 0.00 0.00 0.00 66 1013.1
20260901212307 85 204 0.0 1.7 0.00 0.00 0.00 67 1013.1
20260901212209 84 203 0.0 1.7 0.00 0.00 0.00 67 1013.1
20260901212106 84 206 0.0 1.7 0.00 0.00 0.00 65 1013.0
20260901211958 84 204 0.0 1.7 0.00 0.00 0.00 69 1013.1
20260901211947 84 204 0.0 1.7 0.00 0.00 0.00 65 1013.2
20260901211920 84 204 0.0 1.7 0.00 0.00 0.00 69 1013.1
20260901211516 84 206 0.0 2.6 0.00 0.00 0.00 72 1013.1
20260901211507 84 204 0.0 2.6 0.00 0.00 0.00 69 1013.1
20260901211206 83 206 0.0 2.6 0.00 0.00 0.00 70 1013.1